| time (UTC) | temp C | wind direction | speed KPH | gust KPH | rain 1hr cm | rain 24hr cm | rain mn cm | humidity % | barometer mb |
| 20260505053829 | 2 | 11 | 0.0 | 0.0 | 0.00 | 0.28 | 0.28 | 97 | 1021.5 |
| 20260505053326 | 2 | 11 | 0.0 | 0.0 | 0.00 | 0.28 | 0.28 | 96 | 1021.3 |
| 20260505052823 | 2 | 11 | 0.0 | 0.0 | 0.00 | 0.28 | 0.28 | 96 | 1021.6 |
| 20260505052320 | 1 | 11 | 0.0 | 0.0 | 0.00 | 0.28 | 0.28 | 96 | 1021.5 |
| 20260505051817 | 1 | 11 | 0.0 | 0.0 | 0.00 | 0.28 | 0.28 | 96 | 1021.5 |
| 20260505051314 | 1 | 11 | 0.0 | 0.0 | 0.00 | 0.28 | 0.28 | 96 | 1021.5 |
| 20260505050812 | 1 | 11 | 0.0 | 0.0 | 0.00 | 0.28 | 0.28 | 96 | 1021.3 |
| 20260505050311 | 1 | 11 | 0.0 | 0.0 | 0.00 | 0.28 | 0.28 | 96 | 1021.3 |
| 20260505041740 | 2 | 11 | 0.0 | 0.0 | 0.00 | 0.28 | 0.28 | 96 | 1021.6 |
| 20260505041237 | 2 | 11 | 0.0 | 0.0 | 0.00 | 0.28 | 0.28 | 96 | 1021.9 |
| 20260505040734 | 2 | 11 | 0.0 | 0.0 | 0.00 | 0.28 | 0.28 | 96 | 1021.5 |
| 20260505040232 | 2 | 11 | 0.0 | 0.0 | 0.00 | 0.28 | 0.28 | 96 | 1021.6 |
| 20260505035729 | 2 | 11 | 0.0 | 0.0 | 0.00 | 0.28 | 0.28 | 96 | 1021.9 |
| 20260505035225 | 2 | 11 | 0.0 | 0.0 | 0.00 | 0.28 | 0.28 | 96 | 1021.6 |
| 20260505034722 | 2 | 11 | 0.0 | 0.0 | 0.00 | 0.28 | 0.28 | 96 | 1021.7 |
| 20260505034219 | 2 | 11 | 0.0 | 0.0 | 0.00 | 0.28 | 0.28 | 96 | 1021.3 |
| 20260505033715 | 2 | 11 | 0.0 | 1.6 | 0.00 | 0.28 | 0.28 | 96 | 1021.5 |
| 20260505033213 | 2 | 11 | 0.0 | 0.0 | 0.00 | 0.28 | 0.28 | 96 | 1021.5 |
| 20260505032711 | 2 | 11 | 0.0 | 0.0 | 0.00 | 0.28 | 0.28 | 96 | 1021.6 |
| 20260505032206 | 2 | 10 | 0.0 | 0.0 | 0.00 | 0.28 | 0.28 | 96 | 1021.7 |
| 20260505031704 | 2 | 10 | 0.0 | 0.0 | 0.00 | 0.28 | 0.28 | 96 | 1021.6 |
| 20260505031200 | 2 | 10 | 0.0 | 0.0 | 0.00 | 0.28 | 0.28 | 96 | 1021.9 |
| 20260505030657 | 2 | 10 | 0.0 | 0.0 | 0.00 | 0.28 | 0.28 | 96 | 1021.5 |
| 20260505030153 | 2 | 10 | 0.0 | 0.0 | 0.00 | 0.28 | 0.28 | 96 | 1021.6 |
| 20260505025649 | 2 | 10 | 0.0 | 0.0 | 0.00 | 0.28 | 0.28 | 96 | 1021.3 |
| 20260505025148 | 2 | 10 | 0.0 | 0.0 | 0.00 | 0.28 | 0.28 | 96 | 1021.3 |
| 20260505024645 | 2 | 10 | 0.0 | 0.0 | 0.00 | 0.28 | 0.28 | 96 | 1021.2 |
| 20260505024142 | 2 | 10 | 0.0 | 0.0 | 0.00 | 0.28 | 0.28 | 95 | 1021.2 |
| 20260505023640 | 2 | 10 | 0.0 | 0.0 | 0.00 | 0.28 | 0.28 | 95 | 1021.2 |
| 20260505023137 | 2 | 10 | 0.0 | 0.0 | 0.00 | 0.28 | 0.28 | 95 | 1021.2 |
| 20260505022634 | 2 | 10 | 0.0 | 0.0 | 0.00 | 0.28 | 0.28 | 95 | 1021.2 |
| 20260505022131 | 2 | 10 | 0.0 | 0.0 | 0.00 | 0.28 | 0.28 | 95 | 1020.9 |
| 20260505021628 | 2 | 10 | 0.0 | 0.0 | 0.00 | 0.28 | 0.28 | 95 | 1021.1 |
| 20260505021124 | 2 | 10 | 0.0 | 0.0 | 0.00 | 0.28 | 0.28 | 95 | 1020.9 |
| 20260505020620 | 2 | 10 | 0.0 | 0.0 | 0.00 | 0.28 | 0.28 | 95 | 1020.9 |
| 20260505020116 | 2 | 9 | 0.0 | 0.0 | 0.00 | 0.28 | 0.28 | 95 | 1020.9 |
| 20260505015614 | 2 | 9 | 0.0 | 0.0 | 0.00 | 0.28 | 0.28 | 94 | 1021.1 |
| 20260505015110 | 1 | 16 | 1.6 | 1.6 | 0.13 | 0.28 | 0.28 | 94 | 1020.9 |
| 20260505014607 | 1 | 19 | 3.2 | 3.2 | 0.13 | 0.28 | 0.28 | 94 | 1021.2 |
| 20260505014104 | 1 | 17 | 4.8 | 4.8 | 0.18 | 0.25 | 0.25 | 94 | 1020.9 |
| 20260505013601 | 1 | 16 | 4.8 | 9.7 | 0.48 | 0.25 | 0.25 | 93 | 1020.9 |
| 20260505013059 | 1 | 17 | 3.2 | 3.2 | 0.79 | 0.23 | 0.23 | 92 | 1021.2 |
| 20260505012556 | 2 | 29 | 8.0 | 9.7 | 0.61 | 0.18 | 0.18 | 92 | 1021.5 |
| 20260505012053 | 2 | 32 | 6.4 | 11.3 | 0.30 | 0.10 | 0.10 | 92 | 1021.2 |
| 20260505011549 | 2 | 21 | 4.8 | 4.8 | 0.30 | 0.08 | 0.08 | 91 | 1020.9 |
| 20260505011046 | 2 | 339 | 8.0 | 11.3 | 0.30 | 0.05 | 0.05 | 90 | 1020.4 |
| 20260505010541 | 3 | 34 | 6.4 | 9.7 | 0.18 | 0.03 | 0.03 | 88 | 1020.8 |
| 20260505010038 | 5 | 11 | 9.7 | 12.9 | 0.00 | 0.00 | 0.00 | 82 | 1020.3 |
| 20260505005534 | 6 | 334 | 4.8 | 6.4 | 0.00 | 0.00 | 0.00 | 75 | 1020.3 |
| 20260505005032 | 6 | 199 | 1.6 | 1.6 | 0.00 | 0.00 | 0.00 | 73 | 1020.2 |
| 20260505004529 | 6 | 200 | 1.6 | 1.6 | 0.00 | 0.00 | 0.00 | 74 | 1019.6 |
| 20260505004026 | 6 | 200 | 0.0 | 0.0 | 0.00 | 0.00 | 0.00 | 73 | 1019.5 |
| 20260505003523 | 6 | 200 | 0.0 | 0.0 | 0.00 | 0.00 | 0.00 | 73 | 1019.9 |
| 20260505003020 | 6 | 200 | 0.0 | 0.0 | 0.00 | 0.00 | 0.00 | 70 | 1019.9 |
| 20260505002515 | 6 | 200 | 0.0 | 0.0 | 0.00 | 0.00 | 0.00 | 71 | 1020.0 |
| 20260505002015 | 7 | 200 | 0.0 | 0.0 | 0.00 | 0.00 | 0.00 | 72 | 1020.0 |
| 20260505001511 | 7 | 200 | 0.0 | 0.0 | 0.00 | 0.00 | 0.00 | 74 | 1020.2 |
| 20260505001008 | 7 | 200 | 0.0 | 0.0 | 0.00 | 0.00 | 0.00 | 76 | 1020.3 |
| 20260505000506 | 7 | 200 | 0.0 | 0.0 | 0.00 | 0.00 | 0.00 | 75 | 1020.3 |
| 20260505000003 | 7 | 200 | 0.0 | 0.0 | 0.00 | 0.00 | 0.00 | 73 | 1020.6 |
| 20260504235500 | 7 | 203 | 0.0 | 0.0 | 0.00 | 0.00 | 0.00 | 76 | 1020.6 |
| 20260504234956 | 7 | 203 | 0.0 | 0.0 | 0.00 | 0.00 | 0.00 | 77 | 1020.4 |
| 20260504234454 | 7 | 203 | 0.0 | 0.0 | 0.00 | 0.00 | 0.00 | 78 | 1020.2 |
| 20260504233950 | 7 | 203 | 0.0 | 0.0 | 0.00 | 0.00 | 0.00 | 75 | 1020.7 |
| 20260504233446 | 7 | 203 | 0.0 | 0.0 | 0.00 | 0.00 | 0.00 | 76 | 1020.7 |
| 20260504232943 | 7 | 204 | 0.0 | 0.0 | 0.00 | 0.00 | 0.00 | 76 | 1020.4 |
| 20260504232440 | 7 | 203 | 0.0 | 0.0 | 0.00 | 0.00 | 0.00 | 77 | 1020.6 |
| 20260504231937 | 7 | 204 | 0.0 | 1.6 | 0.00 | 0.00 | 0.00 | 72 | 1020.8 |
| 20260504231433 | 8 | 208 | 0.0 | 0.0 | 0.00 | 0.00 | 0.00 | 73 | 1020.8 |
| 20260504230929 | 7 | 209 | 0.0 | 0.0 | 0.00 | 0.00 | 0.00 | 77 | 1021.2 |
| 20260504230426 | 7 | 209 | 0.0 | 0.0 | 0.00 | 0.00 | 0.00 | 75 | 1020.9 |
| 20260504225926 | 6 | 209 | 0.0 | 0.0 | 0.00 | 0.00 | 0.00 | 79 | 1021.1 |
| 20260504225422 | 7 | 209 | 0.0 | 0.0 | 0.00 | 0.00 | 0.00 | 77 | 1021.2 |
| 20260504224919 | 7 | 208 | 0.0 | 0.0 | 0.00 | 0.00 | 0.00 | 70 | 1021.3 |
| 20260504224416 | 8 | 199 | 0.0 | 0.0 | 0.00 | 0.00 | 0.00 | 60 | 1021.3 |
| 20260504223913 | 8 | 199 | 0.0 | 0.0 | 0.00 | 0.00 | 0.00 | 59 | 1021.1 |
| 20260504223408 | 8 | 191 | 0.0 | 0.0 | 0.00 | 0.00 | 0.00 | 57 | 1020.9 |
| 20260504222904 | 9 | 192 | 0.0 | 0.0 | 0.00 | 0.00 | 0.00 | 55 | 1020.8 |
| 20260504222402 | 10 | 200 | 0.0 | 0.0 | 0.00 | 0.00 | 0.00 | 55 | 1020.8 |
| 20260504221900 | 10 | 157 | 0.0 | 0.0 | 0.00 | 0.00 | 0.00 | 54 | 1021.1 |
| 20260504221356 | 10 | 156 | 0.0 | 0.0 | 0.00 | 0.00 | 0.00 | 53 | 1021.2 |
| 20260504220854 | 10 | 162 | 1.6 | 1.6 | 0.00 | 0.00 | 0.00 | 53 | 1021.3 |
| 20260504220350 | 9 | 151 | 3.2 | 3.2 | 0.00 | 0.00 | 0.00 | 58 | 1021.3 |
| 20260504215847 | 8 | 155 | 1.6 | 1.6 | 0.00 | 0.00 | 0.00 | 60 | 1021.3 |
| 20260504215343 | 8 | 200 | 1.6 | 1.6 | 0.00 | 0.00 | 0.00 | 65 | 1021.5 |
| 20260504214840 | 7 | 194 | 1.6 | 1.6 | 0.00 | 0.00 | 0.00 | 67 | 1021.6 |
| 20260504214337 | 7 | 198 | 0.0 | 0.0 | 0.00 | 0.00 | 0.00 | 69 | 1021.7 |
| 20260504213834 | 6 | 176 | 3.2 | 4.8 | 0.00 | 0.00 | 0.00 | 70 | 1021.7 |
| 20260504213329 | 6 | 142 | 0.0 | 1.6 | 0.00 | 0.00 | 0.00 | 68 | 1021.7 |
| 20260504212827 | 7 | 147 | 3.2 | 3.2 | 0.00 | 0.00 | 0.00 | 66 | 1021.5 |
| 20260504212323 | 7 | 156 | 1.6 | 1.6 | 0.00 | 0.00 | 0.00 | 64 | 1021.5 |
| 20260504211821 | 8 | 293 | 1.6 | 1.6 | 0.00 | 0.00 | 0.00 | 61 | 1021.3 |
| 20260504211317 | 9 | 146 | 0.0 | 0.0 | 0.00 | 0.00 | 0.00 | 57 | 1021.1 |
| 20260504210815 | 10 | 167 | 1.6 | 3.2 | 0.00 | 0.00 | 0.00 | 50 | 1020.8 |
| 20260504210312 | 12 | 158 | 6.4 | 11.3 | 0.00 | 0.00 | 0.00 | 42 | 1020.4 |
| 20260504205809 | 13 | 24 | 4.8 | 6.4 | 0.00 | 0.00 | 0.00 | 34 | 1020.2 |
| 20260504205306 | 13 | 130 | 0.0 | 0.0 | 0.00 | 0.00 | 0.00 | 36 | 1020.2 |
| 20260504204804 | 13 | 130 | 0.0 | 0.0 | 0.00 | 0.00 | 0.00 | 37 | 1020.0 |
| 20260504204302 | 14 | 131 | 1.6 | 1.6 | 0.00 | 0.00 | 0.00 | 34 | 1019.9 |
| 20260504203801 | 15 | 110 | 0.0 | 0.0 | 0.00 | 0.00 | 0.00 | 34 | 1019.9 |
| 20260504203258 | 14 | 187 | 0.0 | 0.0 | 0.00 | 0.00 | 0.00 | 36 | 1020.2 |
| 20260504202758 | 13 | 109 | 0.0 | 1.6 | 0.00 | 0.00 | 0.00 | 37 | 1020.3 |
| 20260504202256 | 14 | 157 | 0.0 | 0.0 | 0.00 | 0.00 | 0.00 | 38 | 1020.2 |
| 20260504201753 | 15 | 193 | 0.0 | 0.0 | 0.00 | 0.00 | 0.00 | 37 | 1020.3 |
| 20260504201250 | 14 | 145 | 1.6 | 1.6 | 0.00 | 0.00 | 0.00 | 37 | 1020.7 |
| 20260504200748 | 13 | 169 | 1.6 | 1.6 | 0.00 | 0.00 | 0.00 | 37 | 1020.7 |
| 20260504200243 | 12 | 101 | 0.0 | 0.0 | 0.00 | 0.00 | 0.00 | 41 | 1020.8 |
| 20260504195740 | 10 | 137 | 0.0 | 0.0 | 0.00 | 0.00 | 0.00 | 46 | 1020.8 |
| 20260504195236 | 11 | 200 | 0.0 | 0.0 | 0.00 | 0.00 | 0.00 | 45 | 1021.1 |
| 20260504194733 | 11 | 312 | 1.6 | 1.6 | 0.00 | 0.00 | 0.00 | 44 | 1020.9 |
| 20260504194229 | 12 | 333 | 3.2 | 4.8 | 0.00 | 0.00 | 0.00 | 43 | 1021.2 |
| 20260504193726 | 12 | 262 | 3.2 | 3.2 | 0.00 | 0.00 | 0.00 | 41 | 1021.2 |
| 20260504193223 | 12 | 65 | 1.6 | 3.2 | 0.00 | 0.00 | 0.00 | 44 | 1021.5 |
| 20260504192722 | 11 | 137 | 0.0 | 0.0 | 0.00 | 0.00 | 0.00 | 47 | 1021.3 |
| 20260504192219 | 11 | 109 | 0.0 | 0.0 | 0.00 | 0.00 | 0.00 | 47 | 1021.6 |
| 20260504191718 | 12 | 164 | 6.4 | 11.3 | 0.00 | 0.00 | 0.00 | 43 | 1021.2 |
| 20260504191214 | 13 | 167 | 1.6 | 6.4 | 0.00 | 0.00 | 0.00 | 43 | 1021.6 |
| 20260504190710 | 13 | 150 | 1.6 | 1.6 | 0.00 | 0.00 | 0.00 | 36 | 1021.3 |
| 20260504190206 | 13 | 152 | 4.8 | 6.4 | 0.00 | 0.00 | 0.00 | 35 | 1021.5 |
| 20260504185703 | 13 | 198 | 0.0 | 0.0 | 0.00 | 0.00 | 0.00 | 37 | 1021.3 |
| 20260504185159 | 13 | 172 | 1.6 | 1.6 | 0.00 | 0.00 | 0.00 | 34 | 1021.7 |
| 20260504184655 | 13 | 246 | 3.2 | 3.2 | 0.00 | 0.00 | 0.00 | 36 | 1021.9 |
| 20260504184151 | 11 | 163 | 3.2 | 4.8 | 0.00 | 0.00 | 0.00 | 39 | 1021.6 |
| 20260504183648 | 11 | 189 | 1.6 | 1.6 | 0.00 | 0.00 | 0.00 | 42 | 1022.4 |
| 20260504183145 | 11 | 241 | 3.2 | 3.2 | 0.00 | 0.00 | 0.00 | 43 | 1022.0 |
| 20260504182643 | 11 | 37 | 3.2 | 4.8 | 0.00 | 0.00 | 0.00 | 43 | 1022.1 |
| 20260504182140 | 11 | 359 | 0.0 | 0.0 | 0.00 | 0.00 | 0.00 | 41 | 1021.9 |
| 20260504181637 | 11 | 43 | 1.6 | 1.6 | 0.00 | 0.00 | 0.00 | 43 | 1022.3 |
| 20260504181135 | 11 | 331 | 1.6 | 1.6 | 0.00 | 0.00 | 0.00 | 43 | 1022.4 |
| 20260504180634 | 11 | 300 | 1.6 | 0.0 | 0.00 | 0.00 | 0.00 | 41 | 1022.0 |
| 20260504180132 | 11 | 35 | 0.0 | 0.0 | 0.00 | 0.00 | 0.00 | 42 | 1022.0 |
| 20260504175629 | 11 | 8 | 0.0 | 0.0 | 0.00 | 0.00 | 0.00 | 40 | 1022.4 |
| 20260504175125 | 12 | 288 | 3.2 | 4.8 | 0.00 | 0.00 | 0.00 | 40 | 1022.4 |
| 20260504174624 | 12 | 234 | 1.6 | 3.2 | 0.00 | 0.00 | 0.00 | 39 | 1022.4 |
| 20260504174120 | 12 | 113 | 3.2 | 3.2 | 0.00 | 0.00 | 0.00 | 39 | 1022.3 |
| 20260504173617 | 12 | 261 | 3.2 | 3.2 | 0.00 | 0.00 | 0.00 | 40 | 1022.4 |
| 20260504173115 | 11 | 134 | 1.6 | 3.2 | 0.00 | 0.00 | 0.00 | 43 | 1022.5 |
| 20260504172611 | 11 | 343 | 0.0 | 0.0 | 0.00 | 0.00 | 0.00 | 46 | 1022.4 |
| 20260504172108 | 12 | 31 | 1.6 | 1.6 | 0.00 | 0.00 | 0.00 | 44 | 1022.8 |
| 20260504171604 | 11 | 13 | 0.0 | 1.6 | 0.00 | 0.00 | 0.00 | 46 | 1022.5 |
| 20260504171101 | 11 | 16 | 3.2 | 4.8 | 0.00 | 0.00 | 0.00 | 45 | 1022.8 |
| 20260504170557 | 11 | 8 | 4.8 | 6.4 | 0.00 | 0.00 | 0.00 | 46 | 1022.8 |
| 20260504150941 | 8 | 23 | 0.0 | 0.0 | 0.00 | 0.00 | 0.00 | 45 | 1023.4 |
| 20260504150438 | 8 | 28 | 1.6 | 1.6 | 0.00 | 0.00 | 0.00 | 47 | 1023.4 |
| 20260504140904 | 2 | 11 | 0.0 | 0.0 | 0.00 | 0.00 | 0.00 | 64 | 1023.6 |
| 20260504140400 | 2 | 11 | 0.0 | 0.0 | 0.00 | 0.00 | 0.00 | 64 | 1023.6 |
| 20260504130325 | 0 | 10 | 0.0 | 0.0 | 0.00 | 0.00 | 0.00 | 65 | 1023.6 |
| 20260504120248 | -2 | 10 | 0.0 | 0.0 | 0.00 | 0.00 | 0.00 | 74 | 1023.0 |
| 20260504110716 | -1 | 10 | 0.0 | 0.0 | 0.00 | 0.00 | 0.00 | 68 | 1023.0 |
| 20260504110212 | -1 | 10 | 0.0 | 0.0 | 0.00 | 0.00 | 0.00 | 69 | 1022.9 |
| 20260504100136 | 0 | 10 | 0.0 | 0.0 | 0.00 | 0.00 | 0.00 | 61 | 1022.8 |
| 20260504081529 | 0 | 10 | 0.0 | 0.0 | 0.00 | 0.00 | 0.00 | 63 | 1023.4 |
| 20260504081025 | 0 | 10 | 0.0 | 0.0 | 0.00 | 0.00 | 0.00 | 63 | 1023.4 |
| 20260504080522 | 0 | 10 | 0.0 | 0.0 | 0.00 | 0.00 | 0.00 | 63 | 1023.6 |